Flag for Netherlands Weather past 2 weeks in Haarlem, Netherlands

Now
48 °F

Scattered showers. Passing clouds.


Feels Like: 43 °F
Forecast: 50 / 56 °F
Wind: 13 mph from West

Location: Amsterdam Schiphol Airport

Current Time: May 29, 2015 at 10:44:02 PM

Latest Report: May 29, 2015 at 9:55 PM


Visibility: N/A

Pressure: 29.71 "Hg

Humidity: 87%

Dew point: 45 °F

Location of HaarlemLocation

Historic Weather in Haarlem — Graph

°F

Haarlem temperature yesterday

Maximum temperature yesterday: 61 °F (at 2:25 PM)
Minimum temperature yesterday: 48 °F (at 11:25 PM)
Average temperature yesterday: 56 °F

Past Weeks' High & Low Weather Summary

 TemperatureHumidityPressure
High66 °F (May 22, 1:55 PM)100% (May 16, 11:25 AM)30.33 "Hg (May 16, 11:25 AM)
Low41 °F (May 24, 2:25 AM)30% (May 24, 5:25 PM)29.56 "Hg (May 19, 4:25 AM)
Average53 °F74%30.04 "Hg
* Reported May 14 9:25 PM — May 29 9:25 PM, Haarlem, Weather by CustomWeather, © 2015

Note: Actual official high and low records may vary slightly from our data, if they occured in-between our weather recording intervals... More about our weather records

Advertising

Haarlem weather history for previous 24 hours

 ConditionsComfort  
Time TempWeatherWind HumidityBarometerVisibility
9:25 PM
Fri, May 29
50 °FSprinkles. Passing clouds.16 mph88%29.68 "HgN/A
8:55 PM52 °FSprinkles. Passing clouds.18 mph82%29.68 "HgN/A
8:25 PM52 °FSprinkles. Passing clouds.17 mph88%29.65 "HgN/A
7:55 PM52 °FSprinkles. Scattered clouds.21 mph82%29.65 "HgN/A
7:25 PM54 °FSprinkles. Broken clouds.17 mph82%29.65 "HgN/A
6:55 PM54 °FLight rain. Partly sunny.17 mph82%29.65 "HgN/A
6:25 PM54 °FLight rain. Scattered clouds.15 mph88%29.65 "HgN/A
5:55 PM54 °FSprinkles. Broken clouds.17 mph82%29.65 "HgN/A
5:25 PM54 °FLight rain. Partly sunny.16 mph82%29.65 "HgN/A
4:55 PM54 °FLight rain. Partly sunny.17 mph82%29.68 "HgN/A
4:25 PM55 °FLight rain. Broken clouds.22 mph67%29.68 "HgN/A
3:55 PM57 °FScattered clouds.20 mph63%29.71 "HgN/A
3:25 PM57 °FSprinkles. Partly sunny.20 mph63%29.71 "HgN/A
2:55 PM57 °FPartly sunny.18 mph59%29.71 "HgN/A
2:25 PM57 °FPassing clouds.17 mph59%29.71 "HgN/A
1:55 PM57 °FPassing clouds.17 mph59%29.74 "HgN/A
1:25 PM55 °FPassing clouds.20 mph59%29.74 "HgN/A
12:55 PM57 °FScattered clouds.22 mph55%29.74 "HgN/A
12:25 PM57 °FScattered clouds.22 mph55%29.77 "HgN/A
11:55 AM55 °FScattered showers. Scattered clouds.14 mph72%29.77 "HgN/A
11:25 AM55 °FSprinkles. Broken clouds.16 mph77%29.77 "HgN/A
10:55 AM57 °FScattered clouds.15 mph72%29.77 "HgN/A
10:25 AM57 °FScattered clouds.13 mph77%29.80 "HgN/A
9:55 AM55 °FScattered clouds.14 mph82%29.80 "HgN/A
9:25 AM55 °FPassing clouds.15 mph82%29.80 "HgN/A
8:55 AM54 °FPassing clouds.12 mph88%29.80 "HgN/A
8:25 AM54 °FPassing clouds.9 mph88%29.80 "HgN/A
7:55 AM52 °FPassing clouds.10 mph88%29.80 "HgN/A
7:25 AM52 °FPassing clouds.9 mph88%29.83 "HgN/A
6:55 AM52 °FPassing clouds.10 mph88%29.83 "HgN/A
6:25 AM50 °FPassing clouds.8 mph94%29.83 "HgN/A
5:55 AM50 °FPassing clouds.8 mph94%29.83 "HgN/A
5:25 AM50 °FClear.7 mph94%29.83 "Hg10 mi
4:55 AM50 °FClear.7 mph94%29.86 "Hg10 mi
4:25 AM50 °FClear.7 mph94%29.86 "Hg10 mi
3:55 AM50 °FClear.7 mph88%29.86 "Hg10 mi
3:25 AM48 °FClear.7 mph94%29.89 "Hg10 mi
2:55 AM48 °FClear.6 mph87%29.89 "Hg10 mi
2:25 AM48 °FClear.6 mph87%29.89 "Hg10 mi
1:55 AM46 °FClear.6 mph87%29.92 "Hg10 mi
1:25 AM46 °FClear.8 mph87%29.92 "Hg10 mi
12:55 AM46 °FClear.6 mph87%29.92 "Hg10 mi
11:55 PM
Thu, May 28
48 °FClear.3 mph87%29.92 "Hg10 mi
11:25 PM48 °FPassing clouds.3 mph82%29.92 "HgN/A
10:55 PM52 °FClear.2 mph77%29.92 "Hg10 mi
10:25 PM50 °FPassing clouds.3 mph82%29.92 "HgN/A
Weather by CustomWeather, © 2015

See weather overviewHow to use our weather pages